User: anonymous   Login
Location: Petruro
(41.0333°N, 14.7833°E)
Time: 19:58:59
(UTC+00:00)
Language:

SeaSat 1 - Orbit

View from above orbital plane
View from above orbital plane
View from above satellite
View from above satellite

Ground track
Ground track

The orbit data is extracted from the following two-line orbital elements,

1 10967U 78064A   21270.57037655 -.00000038  00000-0  28938-4 0  9994
2 10967 107.9963 326.9947 0002578 283.0618  77.0239 14.43898074271938
Epoch (UTC): 27 September 2021 13:41:20
Eccentricity: 0.0002578
inclination: 107.9963°
perigee height: 744 km
apogee height: 747 km
right ascension of ascending node: 326.9947°
argument of perigee: 283.0618°
revolutions per day: 14.43898074
mean anomaly at epoch: 77.0239°
orbit number at epoch: 27193

The dashed part of the orbit path shows where the satellite is in the earth's shadow,  

DLR